This demonstration page uses our WeatherBlox Daily Observations layout. Learn more.

39.29038, -76.61219

Hourly Observations for October 27, 2018

Temp ( °F °C ) Dew Point ( °F °C ) Humidity (%) Winds ( mph kmh ) Pressure ( in mb ) Visibility ( mi km ) Precip ( " mm )
12:54 am 00:54 undefined 50 10 47 8.3 89 89 undefined N/A 29.79 1009 N/A 0.13 3.302
1:54 am 01:54 undefined 51 10.6 48 8.9 89 89 undefined N/A 29.76 1008 N/A 0.07 1.778
2:54 am 02:54 undefined 51 10.6 48 8.9 89 89 undefined N/A 29.7 1006 N/A 0.06 1.524
3:54 am 03:54 undefined 51 10.6 48 8.9 89 89 undefined N/A 29.68 1005 N/A 0.04 1.016
4:54 am 04:54 undefined 51 10.6 48 8.9 89 89 undefined N/A 29.66 1004 N/A 0.06 1.524
5:54 am 05:54 undefined 51 10.6 48 8.9 89 89 undefined N/A 29.6 1003 N/A 0.05 1.27
6:54 am 06:54 undefined 51 10.6 47 8.3 86 86 undefined N/A 29.59 1002 N/A 0.01 0.254
7:54 am 07:54 undefined 51 10.6 48 8.9 89 89 undefined N/A 29.58 1002 N/A 0.02 0.508
8:54 am 08:54 undefined 51 10.6 47 8.3 86 86 undefined N/A 29.56 1001 N/A 0 0
9:54 am 09:54 undefined 52 11.1 48 8.9 86 86 undefined N/A 29.55 1001 N/A 0.01 0.254
10:54 am 10:54 undefined 52 11.1 48 8.9 86 86 undefined N/A 29.56 1001 N/A 0.01 0.254
11:54 am 11:54 undefined 52 11.1 48 8.9 86 86 undefined N/A 29.56 1001 N/A 0.02 0.508
12:54 pm 12:54 undefined 51 10.6 47 8.3 86 86 undefined N/A 29.56 1001 N/A 0.03 0.762
1:54 pm 13:54 undefined 51 10.6 47 8.3 86 86 undefined N/A 29.57 1002 N/A 0.02 0.508
2:54 pm 14:54 undefined 50 10 45 7.2 83 83 undefined N/A 29.58 1002 N/A 0.02 0.508
3:54 pm 15:54 undefined 50 10 44 6.7 80 80 undefined N/A 29.6 1003 N/A 0 0
4:54 pm 16:54 undefined 50 10 43 6.1 77 77 undefined N/A 29.62 1003 N/A 0 0
5:54 pm 17:54 undefined 50 10 42 5.6 74 74 undefined N/A 29.62 1003 N/A 0 0
6:54 pm 18:54 undefined 49 9.4 42 5.6 77 77 undefined N/A 29.65 1004 N/A 0 0
7:54 pm 19:54 undefined 50 10 42 5.6 74 74 undefined N/A 29.67 1005 N/A 0 0
8:54 pm 20:54 undefined 50 10 43 6.1 77 77 undefined N/A 29.69 1006 N/A 0 0
9:54 pm 21:54 undefined 50 10 43 6.1 77 77 undefined N/A 29.71 1006 N/A 0 0
10:54 pm 22:54 undefined 50 10 43 6.1 77 77 undefined N/A 29.7 1006 N/A 0 0
11:54 pm 23:54 undefined 50 10 43 6.1 77 77 undefined N/A 29.71 1006 N/A 0 0

Powered by AerisWeather